TimeMST,TemperatureF,Dew PointF,Humidity,Sea Level PressureIn,VisibilityMPH,Wind Direction,Wind SpeedMPH,Gust SpeedMPH,PrecipitationIn,Events,Conditions,WindDirDegrees,DateUTC
12:09 AM,5.0,3.2,92,29.61,-9999.0,North,-9999.0,-,N/A,,Overcast,0,2013-01-29 07:09:00
12:29 AM,6.8,3.2,85,29.60,-9999.0,SW,12.7,-,N/A,,Overcast,220,2013-01-29 07:29:00
12:49 AM,6.8,5.0,92,29.59,-9999.0,North,-9999.0,-,0.02,,Overcast,0,2013-01-29 07:49:00
1:09 AM,6.8,3.2,85,29.59,-9999.0,North,-9999.0,-,0.01,,Overcast,0,2013-01-29 08:09:00
1:29 AM,5.0,3.2,92,29.59,-9999.0,North,-9999.0,-,0.02,,Overcast,0,2013-01-29 08:29:00
1:49 AM,5.0,3.2,92,29.59,-9999.0,North,-9999.0,-,0.03,,Overcast,0,2013-01-29 08:49:00
2:09 AM,5.0,3.2,92,29.58,-9999.0,SW,15.0,-,0.01,,Overcast,230,2013-01-29 09:09:00
2:29 AM,5.0,1.4,85,29.56,-9999.0,North,-9999.0,-,0.01,,Overcast,0,2013-01-29 09:29:00
2:47 AM,5.0,1.4,85,29.57,-9999.0,WSW,12.7,-,0.01,,Overcast,240,2013-01-29 09:47:00
3:09 AM,5.0,1.4,85,29.56,-9999.0,SW,12.7,19.6,0.04,,Overcast,220,2013-01-29 10:09:00
3:29 AM,5.0,1.4,85,29.56,-9999.0,SW,11.5,19.6,0.05,,Overcast,220,2013-01-29 10:29:00
3:49 AM,5.0,1.4,85,29.56,-9999.0,SW,8.1,19.6,0.07,,Overcast,220,2013-01-29 10:49:00
4:09 AM,5.0,1.4,85,29.54,-9999.0,SW,9.2,20.7,0.01,,Overcast,230,2013-01-29 11:09:00
4:29 AM,5.0,1.4,85,29.53,-9999.0,SW,11.5,18.4,0.04,,Overcast,220,2013-01-29 11:29:00
4:49 AM,5.0,1.4,85,29.52,-9999.0,SW,11.5,20.7,0.07,,Overcast,230,2013-01-29 11:49:00
5:08 AM,3.2,1.4,92,29.51,-9999.0,SSW,10.4,20.7,N/A,,Overcast,210,2013-01-29 12:08:00
5:28 AM,3.2,1.4,92,29.50,-9999.0,SW,12.7,19.6,0.02,,Overcast,220,2013-01-29 12:28:00
5:49 AM,3.2,1.4,92,29.50,-9999.0,SW,11.5,19.6,0.05,,Overcast,220,2013-01-29 12:49:00
6:09 AM,3.2,1.4,92,29.49,-9999.0,SW,12.7,19.6,0.02,,Overcast,230,2013-01-29 13:09:00
6:29 AM,3.2,-0.4,85,29.48,-9999.0,SSW,11.5,19.6,0.05,,Overcast,210,2013-01-29 13:29:00
6:46 AM,3.2,-0.4,85,29.48,-9999.0,North,-9999.0,-,0.08,,Overcast,0,2013-01-29 13:46:00
7:09 AM,3.2,-0.4,85,29.49,-9999.0,SSW,8.1,21.9,0.02,,Overcast,210,2013-01-29 14:09:00
7:29 AM,1.4,-0.4,92,29.49,-9999.0,SSW,13.8,28.8,0.07,,Overcast,200,2013-01-29 14:29:00
7:48 AM,1.4,-0.4,92,29.49,-9999.0,SSW,10.4,26.5,0.08,,Overcast,210,2013-01-29 14:48:00
8:09 AM,1.4,-0.4,92,29.49,-9999.0,SSW,13.8,21.9,0.01,,Overcast,200,2013-01-29 15:09:00
8:29 AM,1.4,-0.4,92,29.48,-9999.0,SSW,13.8,23.0,0.03,,Overcast,210,2013-01-29 15:29:00
8:48 AM,1.4,-0.4,92,29.49,-9999.0,SSW,10.4,23.0,0.04,,Overcast,210,2013-01-29 15:48:00
9:09 AM,1.4,-0.4,92,29.49,-9999.0,SW,13.8,19.6,N/A,,Overcast,220,2013-01-29 16:09:00
9:29 AM,1.4,-2.2,85,29.49,-9999.0,WSW,9.2,-,0.02,,Overcast,240,2013-01-29 16:29:00
9:49 AM,1.4,-0.4,92,29.50,-9999.0,West,3.5,-,0.02,,Overcast,270,2013-01-29 16:49:00
10:09 AM,1.4,-2.2,85,29.50,-9999.0,West,4.6,-,N/A,,Overcast,280,2013-01-29 17:09:00
10:29 AM,-0.4,-4.0,85,29.50,-9999.0,WNW,8.1,-,0.01,,Overcast,290,2013-01-29 17:29:00
10:48 AM,-0.4,-4.0,85,29.49,-9999.0,North,11.5,17.3,0.03,,Unknown,350,2013-01-29 17:48:00
11:09 AM,-0.4,-4.0,85,29.49,-9999.0,North,5.8,-,0.01,,Unknown,350,2013-01-29 18:09:00
11:29 AM,3.2,-0.4,85,29.49,-9999.0,Calm,Calm,-,0.01,,Unknown,0,2013-01-29 18:29:00
11:49 AM,3.2,-0.4,85,29.49,-9999.0,West,4.6,-,0.01,,Unknown,260,2013-01-29 18:49:00
12:09 PM,3.2,-0.4,85,29.49,-9999.0,NE,3.5,-,N/A,,Unknown,50,2013-01-29 19:09:00
12:29 PM,3.2,-0.4,85,29.48,-9999.0,Calm,Calm,-,N/A,,Unknown,0,2013-01-29 19:29:00
12:48 PM,3.2,1.4,92,29.48,-9999.0,North,9.2,-,N/A,,Unknown,360,2013-01-29 19:48:00
1:09 PM,1.4,-2.2,85,29.47,-9999.0,North,8.1,17.3,N/A,,Unknown,350,2013-01-29 20:09:00
1:29 PM,1.4,-2.2,85,29.47,-9999.0,North,5.8,-,N/A,,Unknown,350,2013-01-29 20:29:00
1:49 PM,1.4,-0.4,92,29.48,-9999.0,NNW,8.1,-,N/A,,Unknown,340,2013-01-29 20:49:00
2:09 PM,3.2,-0.4,85,29.48,-9999.0,North,5.8,-,N/A,,Unknown,350,2013-01-29 21:09:00
2:29 PM,1.4,-0.4,92,29.48,-9999.0,NNW,4.6,20.7,N/A,,Unknown,330,2013-01-29 21:29:00
2:49 PM,1.4,-2.2,85,29.49,-9999.0,NNE,10.4,16.1,N/A,,Unknown,30,2013-01-29 21:49:00
3:09 PM,1.4,-2.2,85,29.49,-9999.0,NNE,17.3,28.8,N/A,,Unknown,20,2013-01-29 22:09:00
3:29 PM,-0.4,-4.0,85,29.50,-9999.0,North,-9999.0,-,N/A,,Unknown,0,2013-01-29 22:29:00
3:49 PM,-0.4,-4.0,85,29.51,-9999.0,NNE,24.2,29.9,N/A,,Unknown,30,2013-01-29 22:49:00
4:09 PM,-2.2,-5.8,85,29.52,-9999.0,North,-9999.0,-,N/A,,Unknown,0,2013-01-29 23:09:00
4:29 PM,-4.0,-5.8,92,29.54,-9999.0,North,-9999.0,-,N/A,,Unknown,0,2013-01-29 23:29:00
4:49 PM,-4.0,-7.6,85,29.55,-9999.0,NE,19.6,31.1,N/A,,Unknown,40,2013-01-29 23:49:00
5:09 PM,-4.0,-7.6,85,29.56,-9999.0,NNE,12.7,-,N/A,,Unknown,20,2013-01-30 00:09:00
5:29 PM,-4.0,-7.6,85,29.57,-9999.0,NNE,17.3,24.2,N/A,,Unknown,30,2013-01-30 00:29:00
5:49 PM,-5.8,-9.4,84,29.58,-9999.0,North,9.2,19.6,N/A,,Unknown,350,2013-01-30 00:49:00
6:09 PM,-5.8,-9.4,84,29.59,-9999.0,NE,17.3,25.3,N/A,,Unknown,40,2013-01-30 01:09:00
6:29 PM,-5.8,-9.4,84,29.60,-9999.0,NNE,10.4,17.3,N/A,,Unknown,20,2013-01-30 01:29:00
6:49 PM,-5.8,-9.4,84,29.61,-9999.0,NNE,17.3,27.6,N/A,,Unknown,20,2013-01-30 01:49:00
7:09 PM,-5.8,-9.4,84,29.62,-9999.0,North,5.8,-,N/A,,Unknown,10,2013-01-30 02:09:00
7:29 PM,-7.6,-13.0,77,29.63,-9999.0,ENE,5.8,-,N/A,,Unknown,70,2013-01-30 02:29:00
7:49 PM,-7.6,-9.4,92,29.64,-9999.0,ENE,5.8,-,N/A,,Unknown,60,2013-01-30 02:49:00
8:09 PM,-7.6,-11.2,84,29.66,-9999.0,North,8.1,-,N/A,,Unknown,360,2013-01-30 03:09:00
8:29 PM,-7.6,-11.2,84,29.66,-9999.0,NNE,4.6,-,N/A,,Unknown,30,2013-01-30 03:29:00
8:49 PM,-7.6,-11.2,84,29.66,-9999.0,NNE,12.7,17.3,N/A,,Unknown,30,2013-01-30 03:49:00
9:09 PM,-7.6,-11.2,84,29.67,-9999.0,NNE,8.1,-,N/A,,Unknown,30,2013-01-30 04:09:00
9:29 PM,-7.6,-11.2,84,29.68,-9999.0,North,9.2,-,N/A,,Unknown,350,2013-01-30 04:29:00
9:49 PM,-5.8,-9.4,84,29.68,-9999.0,NNE,5.8,-,N/A,,Unknown,20,2013-01-30 04:49:00
10:09 PM,-7.6,-11.2,84,29.69,-9999.0,NNE,12.7,18.4,N/A,,Unknown,20,2013-01-30 05:09:00
10:29 PM,-5.8,-11.2,77,29.69,-9999.0,North,6.9,18.4,N/A,,Scattered Clouds,350,2013-01-30 05:29:00
10:49 PM,-7.6,-11.2,84,29.70,-9999.0,North,6.9,-,N/A,,Unknown,360,2013-01-30 05:49:00
11:09 PM,-7.6,-13.0,77,29.70,-9999.0,West,6.9,17.3,N/A,,Scattered Clouds,280,2013-01-30 06:09:00
11:49 PM,-7.6,-13.0,77,29.72,-9999.0,North,13.8,23.0,N/A,,Unknown,10,2013-01-30 06:49:00